Location: Unspecified
(41.1850°N, 73.2650°W)
Time: 01:27:22
(UTC+00:00)

N. Korean satellite - Pass Details

Date: 23 October 2021
Orbit: 447 x 495 km, 97.3° (Epoch: 30 November)

Event Time Altitude Azimuth Distance (km) Brightness Sun altitude
Rises 09:10:39 0° 31° (NNE) 2,592 10.8 -23.8°
Reaches altitude 10° 09:13:27 10° 55° (NE) 1,698 10.1 -23.3°
Maximum altitude 09:15:40 15° 92° (E) 1,388 9.8 -22.9°
Drops below altitude 10° 09:17:52 10° 130° (SE) 1,679 9.9 -22.5°
Sets 09:20:37 0° 154° (SSE) 2,544 10.5 -22.0°
